Regional Weather Roundup
Issued by NWS

Home | Current Version | Previous Version | Graphics & Text | Print | Product List | Glossary On
Versions: 1 2 3 4 5 6 7 8 9 10 11 12 13 14 15 16 17 18 19 20 21 22 23 24 25 26 27
000
ASUS43 KDMX 230407
RWRIA

WEATHER ROUNDUP FOR IOWA
NATIONAL WEATHER SERVICE DES MOINES IA
1100 PM CDT TUE APR 22 2014

NOTE: "FAIR" INDICATES FEW OR NO CLOUDS BELOW 12,000 FEET WITH NO
SIGNIFICANT WEATHER AND/OR OBSTRUCTIONS TO VISIBILITY.

* - THESE STATIONS ARE NOT NWS STATIONS...THUS NOT UNDER NWS
QUALITY CONTROL.  THEY ALSO DO NOT REPORT WEATHER SUCH
AS PRECIPITATION OR FOG.

IAZ001>003-012>014-020>022-031>034-043>046-230500-
   NORTHWEST IOWA

CITY           SKY/WX    TMP DP  RH WIND       PRES   REMARKS
CARROLL *      CLOUDY    55  34  44 E10       30.02S
CHEROKEE *     CLOUDY    55  36  47 E6        30.01S
DENISON *      MOCLDY    54  36  50 SE6       30.00S
LE MARS *      CLOUDY    57  37  47 E10       29.99R
ORANGE CITY *  CLOUDY    57  36  44 E8        29.99S
SHELDON *      CLOUDY    55  36  47 SE12      29.99F
SIOUX CITY     CLOUDY    60  35  39 SE14      29.97S
SPENCER        CLOUDY    56  37  49 SE12      30.02S
STORM LAKE *   MOCLDY    52  36  54 SE9       30.02S
$$

IAZ055>058-069>071-079>083-090>094-230500-
   SOUTHWEST IOWA

CITY           SKY/WX    TMP DP  RH WIND       PRES   REMARKS
ATLANTIC *     CLOUDY    57  32  38 E9        30.01S
AUDUBON *      CLOUDY    55  30  38 E5        30.03S
CLARINDA *     CLOUDY    59  34  38 SE7       30.02S
COUNCIL BLFS * CLOUDY    57  36  44 SE9       29.99R
CRESTON *      MOCLDY    52  32  46 E7        30.03S
HARLAN  *      CLOUDY    57  36  44 E7        30.04S
LAMONI         PTCLDY    56  33  42 E5        30.03S
RED OAK *      MOCLDY    57  36  44 E6        30.01S
SHENANDOAH *   CLOUDY    59  37  44 SE7       30.01S
$$

IAZ047>049-059>061-072>074-084-230500-
   CENTRAL IOWA

CITY           SKY/WX    TMP DP  RH WIND       PRES   REMARKS
AMES           MOCLDY    54  34  46 E7        30.04F
ANKENY *       CLEAR     54  34  47 E8        30.04F
CHARITON *     CLOUDY    52  36  54 E7        30.04S
DES MOINES     MOCLDY    58  32  37 E8        30.04F
GRINNELL*      MOCLDY    52  32  46 NE9       30.06S
KNOXVILLE *    CLOUDY    54  34  47 E7        30.04S
MARSHALLTOWN   MOCLDY    50  35  56 NE8       30.05F
NEWTON *       CLOUDY    54  32  43 NE9       30.06S
PELLA *        MOCLDY    54  34  47 NE5       30.06F
PERRY *        MOCLDY    55  32  41 E8        30.04R
$$

IAZ004>006-015-016-023>025-035-036-230500-
   NORTH CENTRAL IOWA

CITY           SKY/WX    TMP DP  RH WIND       PRES   REMARKS
ALGONA *       CLOUDY    54  36  50 E10       30.05S
CLARION *      CLOUDY    52  39  62 E12       30.05S
ESTHERVILLE    LGT RAIN  50  40  68 E12       30.04R
FORT DODGE *   CLOUDY    54  37  54 E9        30.05R
MASON CITY     PTCLDY    49  37  63 E8        30.07F
FOREST CITY *  CLOUDY    50  34  53 E7        30.05S
IOWA FALLS *   CLOUDY    50  36  57 NE6       30.06F
$$

IAZ007>011-017>019-026>030-037>042-050>054-066-230500-
   NORTHEAST IOWA

CITY           SKY/WX    TMP DP  RH WIND       PRES   REMARKS
CEDAR RAPIDS   CLEAR     47  32  56 N6        30.05S
CHARLES CITY * MOCLDY    46  34  61 NE6       30.08S
CLINTON *      CLEAR     43  27  52 N8        30.09R
DECORAH *      PTCLDY    48  23  37 VRB3      30.07S
DUBUQUE        CLEAR     46  26  45 N3        30.07R
MONTICELLO *   CLEAR     41  32  70 CALM      30.07R
OELWEIN *      PTCLDY   N/A N/A N/A NE6       30.08R
WATERLOO       CLEAR     42  34  73 CALM      30.07S
$$

IAZ064-065-067-068-078-230500-
   EAST CENTRAL IOWA

CITY           SKY/WX    TMP DP  RH WIND       PRES   REMARKS
DAVENPORT      CLEAR     43  29  57 N10       30.06R
IOWA CITY      CLEAR     51  31  46 N5        30.08R
MT. PLEASANT * CLEAR     48  30  49 N7        30.06R
MUSCATINE *    CLEAR     46  30  53 CALM      30.06R
QUAD CITIES    CLEAR     45  29  53 CALM      30.05R
$$

IAZ062-063-075>077-085>089-095>099-230500-
   SOUTHEAST IOWA

CITY           SKY/WX    TMP DP  RH WIND       PRES   REMARKS
BURLINGTON     CLEAR     49  31  49 N8        30.04R
FAIRFIELD *    CLEAR     45  32  61 N7        30.06S
FORT MADISON * CLEAR     50  30  46 N5        30.06R
KEOKUK *       CLEAR     52  32  46 N6        30.04R
OSKALOOSA *      N/A     50  37  62 NE7       30.05F
CENTERVILLE *  PTCLDY    52  36  54 NE7       30.06S
OTTUMWA        CLEAR     52  32  46 NE9       30.05S
WASHINGTON *   CLEAR     48  32  53 N8        30.06S
$$

ABBREVIATIONS USED IN REMARKS
   TC - TEMPERATURES IN CELSIUS
  WCI - WIND CHILL INDEX
   HX - HEAT INDEX
  VSB - VISIBILITY
$$




USA.gov is the U.S. government's official web portal to all federal, state and local government web resources and services.